Location: Alsip
(41.6689°N, 87.7387°W)
Time: 09:56:05
(UTC+00:00)

GEOS 3 Rocket - Pass Details

Date: 24 October 2020
Orbit: 770 x 850 km, 115.0° (Epoch: 25 November)

Event Time Altitude Azimuth Distance (km) Brightness Sun altitude
Exits shadow 23:40:11 - 100° (E) 2,476 5.5 -9.0°
Reaches altitude 10° 23:40:19 10° 99° (E) 2,435 5.5 -9.0°
Maximum altitude 23:44:50 30° 41° (NE) 1,480 4.6 -9.9°
Drops below altitude 10° 23:49:25 10° 342° (NNW) 2,474 6.3 -10.7°
Sets 23:52:01 0° 332° (NNW) 3,418 7.2 -11.2°
